IRVINE01 (43693 NORAD) Tracking and Keplerian Element Data

This shows tracking and keplerian element data for the satellite.

Feedback or suggestion? Click here.




ElementValue
Catalog43693
NameIRVINE01
Epoch Orbit3702
Epoch Day193.75369934
Epoch Year2019
RAAN302.2241
Inclination85.0363
Eccentricity0.0020846
Argument of Perigee103.7817
Mean Anonmoly256.5747
Mean Motion15.21451457
Decay Rate1.957E-05
L11 43693U 18088D 19193.75369934 .00001957 00000-0 84846-4 0 9995
L22 43693 85.0363 302.2241 0020846 103.7817 256.5747 15.21451457 37026

Live tracking and technical data element details for IRVINE01 (NORAD 43693). IRVINE01 can be tracked NOW for your location showing map with azimuth and elevation plus other details from your city location.

Track the satellite on the map from your city or location and see movement details for azimuth, elevation, latitude, longitude, range, height, and movement on the map or in text.







IsCatalogInMostPopularTable: catalog: 43693, numindb: 134
Update: records affected: 1



GetName: 43693 IRVINE01

Hit Count: updated at: Wed, 17 Jul 2019 09:09:14 GMT